User: anonymous   Login
Location: Los Gatos B&B
(42.6926°N, 77.0646°W)
Time: 19:51:21
(UTC-04:00)
Language:

Cosmos 2263 Rocket - Orbit

View from above orbital plane
View from above orbital plane
View from above satellite
View from above satellite

Ground track
Ground track

The orbit data is extracted from the following two-line orbital elements,

1 22803U 93059B   17227.88592257 +.00000185 +00000-0 +11603-3 0  9994
2 22803 070.9910 123.6413 0019274 292.1409 067.7669 14.16777390236482
Epoch (UTC): 15 August 2017 21:15:43
Eccentricity: 0.0019274
inclination: 70.9910°
perigee height: 822 km
apogee height: 850 km
right ascension of ascending node: 123.6413°
argument of perigee: 292.1409°
revolutions per day: 14.16777390
mean anomaly at epoch: 67.7669°
orbit number at epoch: 23648

The dashed part of the orbit path shows where the satellite is in the earth's shadow,  

DLR